Location: *
(50.6089°N, 2.2719°E)
Time: 04:11:40
(UTC+00:00)

YAOGAN 1 - Pass Details

Date: 18 October 2019
Orbit: 619 x 621 km, 98.0° (Epoch: 13 November)

Event Time Altitude Azimuth Distance (km) Brightness Sun altitude
Rises 18:24:30 0° 173° (S) 2,887 5.9 -15.2°
Reaches altitude 10° 18:26:42 10° 177° (S) 1,985 5.1 -15.5°
Maximum altitude 18:30:59 62° 259° (WSW) 705 3.1 -16.2°
Drops below altitude 10° 18:35:18 10° 340° (NNW) 2,000 5.5 -16.9°
Sets 18:37:32 0° 344° (NNW) 2,911 6.3 -17.2°
